Flag for Switzerland Weather past 2 weeks in Stans, Nidwalden, Switzerland

Now
68 °F

Mild.


Feels Like: 68 °F
Forecast: 63 / 93 °F
Wind: 1 mph from Northwest

Location: Giswil

Current Time: Jul 2, 2015 at 1:30:19 AM

Latest Report: Jul 2, 2015 at 12:00 AM


Visibility: N/A

Pressure: 30.10 "Hg

Humidity: 84%

Dew point: 63 °F

Location of StansLocation

Historic Weather in Stans — Graph

°F

Stans temperature yesterday

Maximum temperature yesterday: 89 °F (at 5:00 PM)
Minimum temperature yesterday: 58 °F (at 6:00 AM)
Average temperature yesterday: 73 °F

Past Weeks' High & Low Weather Summary

 TemperatureHumidityPressure
High89 °F (Jul 1, 5:00 PM)99% (Jun 19, 12:00 AM)30.25 "Hg (Jun 19, 12:00 AM)
Low47 °F (Jun 25, 6:00 AM)38% (Jun 30, 3:00 PM)29.71 "Hg (Jun 22, 11:00 PM)
Average64 °F75%30.09 "Hg
* Reported Jun 16 11:00 PM — Jul 1 11:00 PM, Stans, Weather by CustomWeather, © 2015

Note: Actual official high and low records may vary slightly from our data, if they occured in-between our weather recording intervals... More about our weather records

Advertising

Stans weather history for previous 24 hours

 ConditionsComfort  
Time TempWeatherWind HumidityBarometerVisibility
11:00 PM
Wed, Jul 1
70 °FMild.3 mph80%30.09 "HgN/A
10:00 PM73 °FMild.3 mph78%30.06 "HgN/A
9:00 PM75 °FMild.3 mph77%30.03 "HgN/A
8:00 PM80 °FWarm.1 mph74%30.01 "HgN/A
7:00 PM85 °FWarm.1 mph57%29.98 "HgN/A
6:00 PM88 °FWarm.2 mph48%29.97 "HgN/A
5:00 PM89 °FHot.2 mph45%29.97 "HgN/A
4:00 PM88 °FHot.3 mph42%29.98 "HgN/A
3:00 PM86 °FWarm.2 mph45%29.99 "HgN/A
2:00 PM85 °FWarm.2 mph44%30.01 "HgN/A
1:00 PM83 °FWarm.2 mph45%30.03 "HgN/A
12:00 PM81 °FWarm.2 mph45%30.04 "HgN/A
11:00 AM77 °FWarm.2 mph55%30.06 "HgN/A
10:00 AM74 °FMild.2 mph60%30.08 "HgN/A
9:00 AM72 °FMild.1 mph67%30.09 "HgN/A
8:00 AM68 °FMild.No wind80%30.10 "HgN/A
7:00 AM62 °FCool.1 mph91%30.11 "HgN/A
6:00 AM58 °FCool.1 mph96%30.12 "HgN/A
5:00 AM58 °FCool.2 mph95%30.11 "HgN/A
4:00 AM59 °FCool.1 mph94%30.10 "HgN/A
3:00 AM59 °FCool.2 mph94%30.10 "HgN/A
2:00 AM61 °FCool.No wind89%30.09 "HgN/A
1:00 AM62 °FCool.1 mph86%30.09 "HgN/A
Weather by CustomWeather, © 2015

See weather overviewHow to use our weather pages